[[{"header":{"parameterUnit":"m.s-1","parameterCategory":1,"la1":30.2991,"la2":30.254,"lo1":-89.0895,"lo2":-89.0444,"dy":0.0017,"dx":0.0017,"nx":28,"ny":28,"refTime":"2025-06-04T09:00:00:Z","depth":0,"parameterNumber":2,"parameterNumberName":"U-component_of_WINDS"},"data":[0,0,0,0,0,0,0,0,0,0,0,0,0,0,0,0,0,0,0,0,0,0,0,0,0,0,0,0,0,0,0,0,0,0,0,0,0,0,0,0,0,0,0,0,0,0,0,0,0,0,0,0,0,0,0,0,0,0,-4.6894,-4.6895,0,-4.6943,-4.6944,-4.6944,-4.6825,-4.6822,-4.6818,-4.6814,-4.6864,-4.6869,-4.6874,0,0,0,0,0,0,0,0,0,0,0,0,0,-4.6696,-4.67,-4.6894,-4.6895,-4.6895,-4.6943,-4.6944,-4.6945,-4.6826,-4.6821,-4.6817,-4.6812,-4.6863,-4.6869,-4.6874,0,0,0,0,0,0,0,0,0,0,0,0,0,-4.6768,-4.6702,-4.6894,-4.6842,-4.6838,-4.6943,-4.6944,-4.6945,-4.6827,-4.6821,-4.6816,-4.681,-4.6861,-4.6868,-4.6875,-4.7033,0,0,-4.6897,-4.6901,0,0,0,0,0,0,0,0,-4.6764,-4.6775,-4.6849,-4.6846,-4.6841,-4.6872,-4.6892,-4.6974,-4.6828,-4.6831,-4.6814,-4.6808,-4.6872,-4.6878,-4.6899,-4.7036,-4.7038,-4.6898,-4.6903,-4.6906,-4.6908,0,0,0,0,0,0,0,-4.6759,-4.6772,-4.6913,-4.685,-4.6845,-4.6816,-4.682,-4.6907,-4.6882,-4.683,-4.6822,-4.6829,-4.6868,-4.6893,-4.69,-4.7039,-4.6898,-4.6904,-4.6909,-4.6912,-4.7305,-4.731,0,0,0,0,0,0,-4.6761,-4.6769,-4.6912,-4.6915,-4.6788,-4.6824,-4.6828,-4.6868,-4.6881,-4.6878,-4.6834,-4.6824,-4.6883,-4.6891,-4.6901,-4.7084,-4.6906,-4.6912,-4.6917,-4.7299,-4.7306,-4.7313,0,0,0,0,0,0,-4.6757,-4.6775,-4.691,-4.684,-4.6854,-4.6833,-4.6879,-4.6872,-4.6896,-4.6884,-4.6879,-4.6863,-4.6879,-4.6891,-4.7001,-4.7084,-4.6916,-4.6922,-4.7291,-4.7301,-4.7309,-4.7454,0,0,0,0,0,0,-4.6752,-4.6774,-4.6834,-4.6842,-4.6859,-4.7009,-4.6884,-4.6877,-4.6909,-4.6896,-4.691,-4.6907,-4.6875,-4.6991,-4.7008,-4.7091,-4.6928,-4.7284,-4.7296,-4.7306,-4.7441,-4.7467,-4.7488,0,0,0,0,0,-4.6745,-4.6873,-4.6837,-4.6855,-4.6933,-4.7014,-4.7024,-4.6985,-4.6916,-4.6976,-4.6968,-4.6907,-4.7074,-4.7003,-4.7021,-4.7108,-4.7278,-4.7292,-4.7306,-4.7431,-4.7462,-4.7488,0,0,0,0,0,0,-4.6875,-4.6873,-4.6834,-4.6968,-4.6992,-4.6994,-4.7068,-4.7019,-4.7063,-4.7049,-4.6999,-4.7003,-4.7122,-4.7127,-4.7048,-4.7261,-4.7164,-4.7182,-4.7253,-4.7282,-4.7305,-4.73,-4.6934,0,0,0,0,0,-4.692,-4.6986,-4.6981,-4.71,-4.7114,-4.709,-4.7123,-4.7091,-4.7114,-4.7124,-4.7124,-4.7149,-4.7206,-4.7245,-4.7298,-4.7443,-4.7443,-4.7512,-4.7535,-4.7555,-4.757,-4.7644,-4.7674,-4.7357,-4.7357,-4.7357,0,0,-4.7012,-4.7019,-4.7064,-4.7126,-4.7141,-4.721,-4.7099,-4.7177,-4.7227,-4.7136,-4.7238,-4.724,-4.7264,-4.7392,-4.7448,-4.7399,-4.7658,-4.7572,-4.7588,-4.7592,-4.7661,-4.7691,-4.7718,-4.7367,-4.7365,-4.7364,0,0,-4.7214,-4.7228,-4.7327,-4.7344,-4.7368,-4.7351,-4.7376,-4.7385,-4.7382,-4.7485,-4.7417,-4.7477,-4.7578,-4.7597,-4.762,-4.7831,-4.7775,-4.785,-4.7971,-4.8044,-4.8069,-4.8091,-4.8163,-4.819,-4.7865,-4.7866,-4.7866,0,-4.7325,-4.7426,-4.7384,-4.7466,-4.7495,-4.7416,-4.7515,-4.7535,-4.7575,-4.7596,-4.7542,-4.7665,-4.7676,-4.7806,-4.7857,-4.788,-4.7904,-4.7845,-4.8069,-4.809,-4.811,-4.8178,-4.8206,-4.7874,-4.7873,-4.7872,-4.7872,0,-4.756,-4.7632,-4.7709,-4.7749,-4.7787,-4.7878,-4.7849,-4.7892,-4.7858,-4.7846,-4.7951,-4.7962,-4.8014,-4.8044,-4.8011,-4.8169,-4.8137,-4.8078,-4.7978,-4.815,-4.8212,-4.8238,-4.7887,-4.7884,-4.7881,-4.7879,0,0,-4.7843,-4.7859,-4.7888,-4.7904,-4.7926,-4.798,-4.8067,-4.8118,-4.8155,-4.8187,-4.8256,-4.8344,-4.8288,-4.8315,-4.8284,-4.8349,-4.8511,-4.828,-4.8279,-4.8319,-4.8683,-4.8725,-4.8756,-4.8476,-4.8481,-4.8485,-4.8679,0,-4.804,-4.8188,-4.8153,-4.83,-4.8364,-4.8291,-4.8366,-4.8387,-4.838,-4.8433,-4.8425,-4.8486,-4.8409,-4.8424,-4.8486,-4.8478,-4.8583,-4.8465,-4.8539,-4.8542,-4.8531,-4.8789,-4.8835,-4.9017,-4.8704,-4.8708,-4.8711,0,-4.8289,-4.8328,-4.8481,-4.8491,-4.8516,-4.8585,-4.8628,-4.8681,-4.8703,-4.8693,-4.8723,-4.8679,-4.8764,-4.8668,-4.8784,-4.8704,-4.8733,-4.8735,-4.8741,-4.8743,-4.8634,-4.8795,-4.9075,-4.9101,-4.875,-4.8747,-4.8744,0,-4.8475,-4.8568,-4.867,-4.8687,-4.8702,-4.8751,-4.876,-4.8777,-4.8809,-4.8848,-4.8868,-4.8917,-4.8942,-4.8981,-4.8951,-4.8884,-4.9071,-4.8973,-4.9063,-4.9064,-4.9102,-4.9099,-4.9387,-4.9128,-4.9128,-4.9127,-4.9127,0,-4.8696,-4.8792,-4.8754,-4.8816,-4.8921,-4.888,-4.8985,-4.8985,-4.9001,-4.9062,-4.9004,-4.9062,-4.9021,-4.9076,-4.9054,-4.9152,-4.9165,-4.9158,-4.915,-4.9161,-4.9161,-4.9176,-4.9161,-4.9135,-4.9133,-4.9132,-4.913,0,-4.892,-4.8899,-4.9005,-4.9011,-4.9015,-4.9091,-4.9095,-4.9153,-4.9142,-4.922,-4.9236,-4.9218,-4.928,-4.9255,-4.9322,-4.9306,-4.9431,-4.9408,-4.9423,-4.9415,-4.9506,-4.9496,-4.981,-4.9847,-4.9568,-4.9571,-4.9573,0,-4.9061,-4.9132,-4.9145,-4.9182,-4.9194,-4.9254,-4.9287,-4.9251,-4.9287,-4.9318,-4.9372,-4.9429,-4.9471,-4.9574,-4.9567,-4.9616,-4.9592,-4.9699,-4.9599,-4.9607,-4.9589,-4.9584,-4.959,-4.9718,-4.9721,-4.9724,-4.9726,0,-4.9311,-4.9297,-4.9346,-4.9393,-4.9433,-4.9468,-4.9497,-4.9531,-4.9496,-4.954,-4.9602,-4.9635,-4.9702,-4.9759,-4.9803,-4.9811,-4.9762,-4.9758,-4.9781,-4.979,-4.9794,-4.979,-4.9473,-4.975,-4.9747,-4.9746,-4.9744,-4.9743,-4.9495,-4.9554,-4.9572,-4.9629,-4.9647,-4.9676,-4.973,-4.9726,-4.9777,-4.9828,-4.9804,-4.9876,-4.9896,-4.995,-4.9966,-5.0021,-4.9979,-5.0013,-5.0021,-5.0029,-5.0039,-4.9789,-5.0029,-5.0029,-5.0028,-5.0027,-5.0027,0,-4.9739,-4.9747,-4.98,-4.9843,-4.9887,-4.9839,-4.9869,-4.9909,-4.9973,-4.9996,-5.0039,-5.011,-5.0165,-5.0163,-5.0213,-5.0257,-5.0236,-5.0271,-5.0266,-5.0268,-5.0075,-5.0048,-5.0287,-5.0287,-5.0287,-5.0287,-5.0287,-5.0287,-4.9871,-4.9968,-4.9956,-5.0061,-5.0069,-5.0138,-5.0159,-5.0185,-5.0203,-5.0284,-5.0329,-5.0327,-5.034,-5.0391,-5.0438,-5.0436,-5.0456,-5.0499,-5.0488,-5.0308,-5.0282,-5.0257,-5.0231,-5.0505,-5.0505,-5.0676,-5.0677,-5.0678]},{"header":{"parameterUnit":"m.s-1","parameterCategory":1,"la1":30.2991,"la2":30.254,"lo1":-89.0895,"lo2":-89.0444,"dy":0.0017,"dx":0.0017,"nx":28,"ny":28,"refTime":"2025-06-04T09:00:00:Z","depth":0,"parameterNumber":3,"parameterNumberName":"V-component_of_WINDS"},"data":[0,0,0,0,0,0,0,0,0,0,0,0,0,0,0,0,0,0,0,0,0,0,0,0,0,0,0,0,0,0,0,0,0,0,0,0,0,0,0,0,0,0,0,0,0,0,0,0,0,0,0,0,0,0,0,0,0,0,2.6072,2.6072,0,2.6088,2.6088,2.6088,2.6009,2.6007,2.6005,2.6003,2.6017,2.6019,2.6022,0,0,0,0,0,0,0,0,0,0,0,0,0,2.5973,2.5975,2.6072,2.6072,2.6072,2.6088,2.6088,2.6088,2.601,2.6007,2.6004,2.6002,2.6016,2.6019,2.6022,0,0,0,0,0,0,0,0,0,0,0,0,0,2.6005,2.5976,2.6072,2.6035,2.6032,2.6088,2.6088,2.6088,2.601,2.6007,2.6004,2.6,2.6015,2.6019,2.6022,2.6113,0,0,2.6034,2.6035,0,0,0,0,0,0,0,0,2.6004,2.6009,2.604,2.6038,2.6034,2.6043,2.6058,2.6097,2.6011,2.6019,2.6003,2.5999,2.6028,2.6031,2.6041,2.6114,2.6115,2.6034,2.6036,2.6038,2.6039,0,0,0,0,0,0,0,2.6001,2.6008,2.6078,2.6041,2.6037,2.6018,2.6018,2.6065,2.6042,2.6018,2.6012,2.6015,2.6026,2.6038,2.6041,2.6115,2.6034,2.6037,2.604,2.6041,2.6264,2.6267,0,0,0,0,0,0,2.6004,2.6006,2.6078,2.6079,2.601,2.6022,2.6023,2.6044,2.6042,2.6038,2.6018,2.6011,2.6033,2.6037,2.6041,2.6147,2.6038,2.6041,2.6044,2.626,2.6265,2.6269,0,0,0,0,0,0,2.6002,2.6011,2.6077,2.6041,2.6048,2.6028,2.6051,2.6046,2.6057,2.6042,2.6037,2.6034,2.603,2.6036,2.6096,2.6146,2.6043,2.6046,2.6256,2.6262,2.6267,2.636,0,0,0,0,0,0,2.6,2.6011,2.6046,2.6042,2.605,2.6132,2.6055,2.6049,2.6064,2.6056,2.6056,2.6052,2.6028,2.6091,2.61,2.615,2.6049,2.6251,2.6258,2.6265,2.6353,2.6368,2.6382,0,0,0,0,0,2.5997,2.6071,2.6048,2.6057,2.6093,2.6135,2.614,2.6111,2.6069,2.6103,2.6093,2.6052,2.614,2.6098,2.6107,2.6159,2.6248,2.6256,2.6264,2.6346,2.6365,2.6382,0,0,0,0,0,0,2.6079,2.607,2.6044,2.6119,2.6129,2.6122,2.6164,2.6132,2.6153,2.6144,2.6107,2.6108,2.6175,2.6173,2.6126,2.6247,2.6186,2.6197,2.6245,2.6264,2.6278,2.6276,2.6052,0,0,0,0,0,2.6106,2.6142,2.6132,2.6199,2.6206,2.6185,2.6202,2.6179,2.6187,2.6191,2.6185,2.6194,2.6224,2.6244,2.627,2.6353,2.6351,2.6393,2.6408,2.642,2.6429,2.6473,2.6491,2.6296,2.6296,2.6296,0,0,2.6162,2.6161,2.6186,2.6216,2.6221,2.6258,2.6188,2.6231,2.6258,2.6197,2.6253,2.6251,2.6258,2.633,2.6362,2.6331,2.6483,2.643,2.644,2.6442,2.6483,2.6501,2.6518,2.6301,2.63,2.6299,0,0,2.6283,2.6286,2.6343,2.635,2.6359,2.6344,2.6358,2.6357,2.6353,2.641,2.6365,2.6397,2.6449,2.6456,2.6466,2.6593,2.6556,2.6603,2.6678,2.6722,2.6737,2.675,2.6795,2.6811,2.6612,2.6613,2.6613,0,2.635,2.6406,2.6376,2.6422,2.6436,2.6385,2.6442,2.6449,2.6466,2.6477,2.6443,2.6508,2.6509,2.6582,2.6613,2.6624,2.6638,2.6601,2.6737,2.675,2.6762,2.6804,2.6821,2.6618,2.6617,2.6617,2.6616,0,2.6489,2.6528,2.6573,2.6592,2.6611,2.6663,2.664,2.6664,2.6641,2.663,2.6689,2.669,2.6715,2.6731,2.6708,2.6802,2.6782,2.6744,2.6681,2.6787,2.6826,2.6842,2.6626,2.6624,2.6622,2.6621,0,0,2.6659,2.6662,2.6679,2.6687,2.6694,2.6724,2.6774,2.68,2.6821,2.6835,2.6875,2.6921,2.6886,2.6898,2.6875,2.6914,2.7013,2.687,2.6869,2.6896,2.7116,2.7144,2.7164,2.699,2.6993,2.6995,2.7115,0,2.6777,2.6861,2.6837,2.6922,2.6958,2.691,2.6953,2.6962,2.6955,2.6984,2.6975,2.7008,2.6959,2.6966,2.7002,2.6994,2.7057,2.6985,2.7026,2.7028,2.7024,2.7184,2.7213,2.7326,2.713,2.7133,2.7135,0,2.6924,2.6945,2.7034,2.7037,2.7051,2.709,2.7112,2.7141,2.7151,2.7143,2.7158,2.7128,2.7177,2.7117,2.7183,2.7134,2.715,2.7149,2.7153,2.7154,2.7086,2.7188,2.7362,2.7378,2.7158,2.7156,2.7155,0,2.7039,2.7089,2.7149,2.7158,2.7162,2.7191,2.7194,2.72,2.7218,2.7238,2.7249,2.7275,2.7288,2.7308,2.7286,2.7245,2.7356,2.7294,2.735,2.7351,2.7374,2.7372,2.7551,2.7387,2.7387,2.7386,2.7386,0,2.7171,2.7227,2.7201,2.7237,2.7299,2.7271,2.7332,2.733,2.7337,2.7372,2.7333,2.7366,2.7336,2.7367,2.7351,2.7408,2.7415,2.7409,2.7404,2.7412,2.7412,2.742,2.7411,2.7391,2.739,2.7389,2.7388,0,2.7308,2.7293,2.7355,2.7355,2.7356,2.7401,2.7401,2.7435,2.7425,2.747,2.7479,2.7464,2.7499,2.748,2.7516,2.7505,2.7579,2.7563,2.7576,2.7571,2.7628,2.7622,2.7816,2.784,2.7662,2.7664,2.7666,0,2.7393,2.7435,2.744,2.7462,2.7468,2.7502,2.7521,2.7495,2.7516,2.7532,2.7564,2.7595,2.7619,2.7677,2.7669,2.7696,2.7681,2.7747,2.7684,2.7691,2.768,2.7678,2.7681,2.7759,2.7761,2.7763,2.7764,0,2.7545,2.7536,2.7564,2.7591,2.7615,2.7634,2.765,2.767,2.7645,2.767,2.7706,2.7725,2.7762,2.7794,2.7818,2.782,2.7788,2.7784,2.7798,2.7806,2.7811,2.7808,2.7609,2.7779,2.7778,2.7777,2.7776,2.7775,2.7658,2.7693,2.7703,2.7736,2.7746,2.7763,2.7795,2.779,2.782,2.7848,2.7832,2.7874,2.7884,2.7912,2.792,2.7952,2.7925,2.7946,2.7951,2.7956,2.7964,2.7808,2.7956,2.7956,2.7955,2.7955,2.7955,0,2.7807,2.7811,2.7843,2.7867,2.7894,2.7863,2.788,2.7903,2.7941,2.7953,2.7978,2.802,2.8051,2.8047,2.8075,2.8102,2.8088,2.811,2.8107,2.8108,2.7986,2.7971,2.8121,2.8121,2.8121,2.8121,2.8121,2.8121,2.7888,2.7946,2.7939,2.8002,2.8006,2.8047,2.8059,2.8074,2.8084,2.8133,2.8159,2.8156,2.8162,2.8191,2.8218,2.8216,2.8228,2.8256,2.8248,2.8134,2.8117,2.8101,2.8086,2.8259,2.8259,2.8368,2.8369,2.8369]}]]